map of CTU home
CTU - Airport
Location
City:  Chengdu, Sichuan, China
Name:Shuangliu International Airport
ICAO:ZUUU
IATA:CTU

Details
Type:Airport (Aerodrome, Airfield)
Use:Public/Civil, International (customs port of entry)
Latitude:3035'N (30.580)
Longitude:10357'E (103.948)
Elevation:1681 ft (512 m)
Variation:2.00W (WMM2015 magnetic declination)
-0.02 annual change
Runways:2
Longest:11811 × 197 ft (3600 × 60 m), paved

Time
Time Zone:UTC+8
Local Time:

Weather
METAR:ZUUU 191200Z 06002MPS 040V100 8000 BKN020 16/14 Q1019 NOSIG

Related Locations
Nearby:
Farthest:SCOA: 12181 mi / 19603 km
Ovalle [Estancia Los Loros Airport], CO, CL

Find:

   beyond  
but within

Other Information
Maps:
NOTAMs:
Links:
Sources:

  
  • flag of China
  

Sectional Chart

Flight Planning
at skyvector.com

Satellite Image

Google Maps Satellite view

 

Copyright © 2004-2018 Karl L. Swartz. All rights reserved.
The Great Circle Mapper name and logo are trademarks of the Great Circle Mapper.
All other trademarks mentioned herein belong to their respective owners.
Please see credits for attibutions and further copyright information.

  Follow gcmap on Facebook Follow gcmap on Twitter Follow gcmap on Google+ GCmap on LinkedIn

hCard Microformat

Geo Microformat